Weather History for PATA - September, 2013

Change the Weather History Date:

Friday, September 27, 2013

  Actual Average Record
Temperature  
Mean Temperature 38 °F -  
Max Temperature 46 °F 45 °F 62 °F (1984)
Min Temperature 30 °F 28 °F 8 °F (1992)
Degree Days  
Heating Degree Days 27    
Moisture  
Dew Point 32 °F    
Average Humidity 83    
Maximum Humidity 96    
Minimum Humidity 63    
Precipitation  
Precipitation 0.00 in - - ()
Sea Level Pressure  
Sea Level Pressure 29.27 in    
Wind  
Wind Speed 6 mph (ENE)    
Max Wind Speed 12 mph    
Max Gust Speed -    
Visibility 10 miles    
Events      
Averages and records for this station are not official NWS values.
T = Trace of Precipitation, MM = Missing Value Source: NWS Daily Summary

Daily Weather History Graph

Daily Weather History Graph

Search for Another Location

Airport or City:

Trip Planner

Search our weather history database for the weather conditions in past years. The results will help you decide how hot, cold, wet, or windy it might be!

Date:

Astronomy

Sep. 27, 2013 Rise Set
Actual Time 8:07 AM AKDT 7:49 PM AKDT
Civil Twilight 7:18 AM AKDT 8:38 PM AKDT
Nautical Twilight 6:18 AM AKDT 9:37 PM AKDT
Astronomical Twilight 5:11 AM AKDT 10:43 PM AKDT
Moon No Moon Rise 5:38 PM AKDT (9/27)
Length of Visible Light 13h 20m
Length of Day
11h 41m
Last Quarter, 44% of the Moon is Illuminated
Sep 27
Last Quarter
Oct 4
New
Oct 11
First Quarter
Oct 18
Full
Oct 26
Last Quarter

Hourly Weather History & Observations

Time (AKDT) Temp. Windchill Dew Point Humidity Pressure Visibility Wind Dir Wind Speed Gust Speed Precip Events Conditions
12:52 AM 37.9 °F 34.4 °F 34.0 °F 86% 29.34 in 10.0 mi East 4.6 mph - N/A   Overcast
1:52 AM 37.0 °F 29.8 °F 33.1 °F 86% 29.31 in 10.0 mi East 10.4 mph - N/A   Partly Cloudy
2:52 AM 34.0 °F - 32.0 °F 92% 29.28 in 10.0 mi Calm Calm - N/A   Scattered Clouds
3:52 AM 30.9 °F - 28.9 °F 92% 29.26 in 10.0 mi Calm Calm - N/A   Clear
4:52 AM 35.1 °F 27.4 °F 32.0 °F 89% 29.24 in 10.0 mi ENE 10.4 mph - N/A   Partly Cloudy
5:52 AM 35.1 °F 27.4 °F 30.9 °F 85% 29.23 in 10.0 mi East 10.4 mph - N/A   Scattered Clouds
6:52 AM 33.1 °F 28.7 °F 30.0 °F 89% 29.22 in 10.0 mi North 4.6 mph - N/A   Scattered Clouds
7:52 AM 32.0 °F 24.8 °F 28.9 °F 88% 29.22 in 10.0 mi ENE 8.1 mph - N/A   Scattered Clouds
8:52 AM 30.0 °F 24.1 °F 28.0 °F 92% 29.23 in 10.0 mi NW 5.8 mph - N/A   Mostly Cloudy
9:52 AM 35.1 °F 31.0 °F 32.0 °F 89% 29.21 in 10.0 mi NNE 4.6 mph - N/A   Mostly Cloudy
10:52 AM 41.0 °F - 34.0 °F 76% 29.23 in 10.0 mi Calm Calm - N/A   Mostly Cloudy
11:52 AM 42.1 °F 37.7 °F 34.0 °F 73% 29.24 in 10.0 mi NE 6.9 mph - N/A   Overcast
12:52 PM 44.1 °F 39.0 °F 35.1 °F 71% 29.24 in 10.0 mi East 9.2 mph - N/A   Overcast
1:52 PM 45.0 °F 40.1 °F 35.1 °F 68% 29.24 in 10.0 mi ENE 9.2 mph - N/A   Mostly Cloudy
2:52 PM 45.0 °F 39.3 °F 35.1 °F 68% 29.25 in 10.0 mi SE 11.5 mph - N/A   Overcast
3:52 PM 46.9 °F - 35.1 °F 63% 29.25 in 10.0 mi East 10.4 mph - N/A   Overcast
4:52 PM 45.0 °F 39.7 °F 35.1 °F 68% 29.26 in 10.0 mi East 10.4 mph - N/A   Overcast
5:52 PM 42.1 °F 38.4 °F 35.1 °F 76% 29.28 in 10.0 mi East 5.8 mph - N/A   Mostly Cloudy
6:52 PM 41.0 °F - 35.1 °F 79% 29.30 in 10.0 mi Calm Calm - N/A   Mostly Cloudy
7:52 PM 39.0 °F - 34.0 °F 82% 29.31 in 10.0 mi Calm Calm - N/A   Mostly Cloudy
8:52 PM 33.1 °F 28.7 °F 30.9 °F 92% 29.32 in 10.0 mi North 4.6 mph - N/A   Mostly Cloudy
9:52 PM 33.1 °F - 30.9 °F 92% 29.34 in 10.0 mi Calm Calm - N/A   Scattered Clouds
10:52 PM 30.9 °F 27.5 °F 30.0 °F 96% 29.34 in 10.0 mi NNW 3.5 mph - N/A   Overcast
11:52 PM 30.9 °F - 28.9 °F 92% 29.35 in 10.0 mi Calm Calm - N/A   Clear